Weather History for Montpelier, VT

Change the Weather History Date:

Monday, September 3, 2012

  Actual Average Record
Temperature  
Mean Temperature 62 °F 62 °F  
Max Temperature 79 °F 74 °F 89 °F (1953)
Min Temperature 45 °F 50 °F 36 °F (1970)
Degree Days  
Heating Degree Days 3 4  
Month to date heating degree days 6 12  
Since 1 July heating degree days 67 120  
Cooling Degree Days 0 1  
Month to date cooling degree days 0 3  
Year to date cooling degree days 279 247  
Growing Degree Days 12 (Base 50)    
Moisture  
Dew Point 50 °F    
Average Humidity 74    
Maximum Humidity 100    
Minimum Humidity 47    
Precipitation  
Precipitation 0.00 in 0.09 in 0.83 in (1992)
Month to date precipitation T 0.28  
Year to date precipitation 20.56 25.08  
Sea Level Pressure  
Sea Level Pressure 30.21 in    
Wind  
Wind Speed 4 mph (South)    
Max Wind Speed 13 mph    
Max Gust Speed 18 mph    
Visibility 6 miles    
Events Fog    
T = Trace of Precipitation, MM = Missing Value Source: NWS Daily Summary

Daily Weather History Graph

Daily Weather History Graph

Search for Another Location

Airport:

Trip Planner

Search our weather history database for the weather conditions in past years. The results will help you decide how hot, cold, wet, or windy it might be!

Date:

Astronomy

Sep. 03, 2012 Rise Set
Actual Time 6:16 AM EDT 7:21 PM EDT
Civil Twilight 5:46 AM EDT 7:51 PM EDT
Nautical Twilight 5:10 AM EDT 8:26 PM EDT
Astronomical Twilight 4:33 AM EDT 9:04 PM EDT
Moon 8:29 PM EDT (9/3) 9:31 AM EDT (9/3)
Length of Visible Light 14h 05m
Length of Day
13h 05m
Waning Gibbous, 90% of the Moon is Illuminated
Sep 3
Waning Gibbous
Sep 8
Last Quarter
Sep 15
New
Sep 22
First Quarter
Sep 29
Full

Hourly Weather History & Observations

Time (EDT) Temp. Dew Point Humidity Pressure Visibility Wind Dir Wind Speed Gust Speed Precip Events Conditions
12:51 AM 51.1 °F 48.9 °F 92% 30.21 in 10.0 mi Calm Calm - N/A   Clear
1:51 AM 48.9 °F 46.9 °F 93% 30.22 in 10.0 mi Calm Calm - N/A   Clear
2:51 AM 46.9 °F 46.9 °F 100% 30.22 in 10.0 mi Calm Calm - N/A   Clear
3:17 AM 46.4 °F 46.4 °F 100% 30.21 in 2.0 mi Calm Calm - N/A   Partly Cloudy
3:19 AM 46.4 °F 46.4 °F 100% 30.21 in 1.0 mi Calm Calm - N/A   Mist
3:26 AM 46.4 °F 46.4 °F 100% 30.21 in 0.2 mi Calm Calm - N/A Fog Fog
3:44 AM 46.4 °F 46.4 °F 100% 30.21 in 1.2 mi Calm Calm - N/A   Mostly Cloudy
3:51 AM 46.0 °F 46.0 °F 100% 30.22 in 0.8 mi Calm Calm - N/A   Mist
4:09 AM 46.4 °F 46.4 °F 100% 30.21 in 1.2 mi Calm Calm - N/A   Mostly Cloudy
4:12 AM 46.4 °F 46.4 °F 100% 30.21 in 2.0 mi Calm Calm - N/A   Mostly Cloudy
4:20 AM 46.4 °F 44.6 °F 93% 30.21 in 6.0 mi Calm Calm - N/A   Mostly Cloudy
4:27 AM 46.4 °F 46.4 °F 100% 30.21 in 10.0 mi Calm Calm - N/A   Scattered Clouds
4:48 AM 46.4 °F 44.6 °F 93% 30.22 in 9.0 mi Calm Calm - N/A   Mostly Cloudy
4:51 AM 46.0 °F 46.0 °F 100% 30.22 in 4.0 mi Calm Calm - N/A   Mostly Cloudy
5:08 AM 44.6 °F 44.6 °F 100% 30.22 in 1.0 mi Calm Calm - N/A   Mist
5:16 AM 46.4 °F 46.4 °F 100% 30.22 in 0.8 mi Calm Calm - N/A   Mist
5:22 AM 46.4 °F 46.4 °F 100% 30.22 in 1.2 mi Calm Calm - N/A   Mostly Cloudy
5:24 AM 46.4 °F 46.4 °F 100% 30.22 in 2.0 mi Calm Calm - N/A   Mostly Cloudy
5:32 AM 46.4 °F 46.4 °F 100% 30.23 in 8.0 mi Calm Calm - N/A   Mostly Cloudy
5:39 AM 44.6 °F 44.6 °F 100% 30.23 in 3.0 mi Calm Calm - N/A   Scattered Clouds
5:42 AM 44.6 °F 44.6 °F 100% 30.23 in 1.8 mi Calm Calm - N/A   Scattered Clouds
5:51 AM 46.0 °F 46.0 °F 100% 30.24 in 2.0 mi Calm Calm - N/A   Mostly Cloudy
5:58 AM 46.4 °F 46.4 °F 100% 30.23 in 10.0 mi Calm Calm - N/A   Mostly Cloudy
6:30 AM 48.2 °F 48.2 °F 100% 30.24 in 10.0 mi Calm Calm - N/A   Overcast
6:51 AM 48.0 °F 48.0 °F 100% 30.25 in 10.0 mi Calm Calm - N/A   Overcast
7:48 AM 48.2 °F 48.2 °F 100% 30.25 in 1.8 mi Calm Calm - N/A   Mist
7:51 AM 48.9 °F 48.9 °F 100% 30.27 in 1.5 mi Calm Calm - N/A   Mist
7:54 AM 48.2 °F 48.2 °F 100% 30.25 in 1.0 mi East 3.5 mph - N/A   Mist
8:00 AM 48.2 °F 48.2 °F 100% 30.25 in 0.8 mi Calm Calm - N/A   Overcast
8:25 AM 50.0 °F 50.0 °F 100% 30.24 in 0.2 mi Calm Calm - N/A Fog Fog
8:35 AM 51.8 °F 51.8 °F 100% 30.24 in 0.5 mi Calm Calm - N/A Fog Fog
8:46 AM 51.8 °F 51.8 °F 100% 30.24 in 1.0 mi Calm Calm - N/A   Mist
8:49 AM 51.8 °F 51.8 °F 100% 30.24 in 1.5 mi Calm Calm - N/A   Overcast
8:51 AM 51.8 °F 51.8 °F 100% 30.24 in 2.5 mi Calm Calm - N/A   Overcast
8:58 AM 51.8 °F 51.8 °F 100% 30.25 in 8.0 mi Calm Calm - N/A   Overcast
9:40 AM 57.2 °F 53.6 °F 88% 30.25 in 10.0 mi NE 3.5 mph - N/A   Scattered Clouds
9:51 AM 57.9 °F 55.0 °F 90% 30.26 in 10.0 mi Calm Calm - N/A   Clear
10:51 AM 68.0 °F 55.9 °F 65% 30.24 in 10.0 mi South 9.2 mph - N/A   Clear
11:51 AM 71.1 °F 55.9 °F 59% 30.21 in 10.0 mi South 9.2 mph - N/A   Clear
12:51 PM 75.0 °F 55.9 °F 51% 30.20 in 10.0 mi Variable 6.9 mph - N/A   Clear
1:51 PM 73.4 °F 55.4 °F 53% 30.19 in 10.0 mi SW 5.8 mph - N/A   Mostly Cloudy
2:51 PM 75.0 °F 57.0 °F 53% 30.17 in 10.0 mi South 6.9 mph - N/A   Mostly Cloudy
3:51 PM 79.0 °F 57.0 °F 47% 30.16 in 10.0 mi South 12.7 mph 16.1 mph N/A   Scattered Clouds
4:51 PM 77.0 °F 55.9 °F 48% 30.15 in 10.0 mi South 8.1 mph - N/A   Clear
5:51 PM 75.9 °F 55.0 °F 48% 30.14 in 10.0 mi South 9.2 mph - N/A   Clear
6:51 PM 71.6 °F 55.4 °F 57% 30.13 in 10.0 mi South 8.1 mph - N/A   Clear
7:51 PM 66.0 °F 55.0 °F 68% 30.15 in 10.0 mi SSW 3.5 mph - N/A   Clear
8:51 PM 64.9 °F 55.0 °F 70% 30.16 in 10.0 mi South 6.9 mph - N/A   Clear
9:51 PM 64.9 °F 55.0 °F 70% 30.15 in 10.0 mi South 8.1 mph - N/A   Clear
10:51 PM 63.0 °F 55.0 °F 75% 30.15 in 10.0 mi Calm Calm - N/A   Clear
11:51 PM 62.1 °F 55.0 °F 78% 30.14 in 10.0 mi Calm Calm - N/A   Clear